Terminal Aerodrome Forecast
Issued by NWS

Home | Current Version | Previous Version | Text Only | Print | Product List | Glossary Off
Versions: 1 2 3 4 5 6 7 8 9 10 11 12 13 14 15 16 17 18 19

000
FTUS43 KMPX 142251 AAB
TAFAXN
TAF AMD
KAXN 142251Z 1423/1518 01013G20KT 4SM SHRA OVC025
     FM150400 35014G22KT 6SM -SHRA BR OVC015
     FM150900 33014G19KT P6SM OVC035
     FM151300 31008KT P6SM SCT040=

USA.gov is the U.S. government's official web portal to all federal, state and local government web resources and services.